Flag for Greece Weather past 2 weeks in Glyfada, Greece

63 °F

Partly sunny.

Feels Like: 63 °F
Forecast: 49 / 59 °F
Wind: 6 mph from West

Location: Eleftherios Venizelos International Airport

Current Time: Nov 29, 2015 at 12:55:43 PM

Latest Report: Nov 29, 2015 at 11:50 AM

Visibility: N/A

Pressure: 30.07 "Hg

Humidity: 52%

Dew point: 45 °F

Location of GlyfadaLocation

Historic Weather in Glyfada — Graph


Glyfada temperature yesterday

Maximum temperature yesterday: 63 °F (at 11:50 AM)
Minimum temperature yesterday: 52 °F (at 7:20 AM)
Average temperature yesterday: 59 °F

Past Weeks' High & Low Weather Summary

High72 °F (Nov 22, 11:50 AM)94% (Nov 18, 10:50 PM)30.24 "Hg (Nov 18, 10:50 PM)
Low41 °F (Nov 16, 4:50 AM)43% (Nov 16, 12:50 PM)29.50 "Hg (Nov 26, 3:50 AM)
Average61 °F72%29.96 "Hg
* Reported Nov 14 11:20 AM — Nov 29 11:50 AM, Glyfada, Weather by CustomWeather, © 2015

Note: Actual official high and low records may vary slightly from our data, if they occured in-between our weather recording intervals... More about our weather records


Glyfada weather history for previous 24 hours

Time TempWeatherWind HumidityBarometerVisibility
11:50 AM
Sun, Nov 29
63 °FPartly sunny.6 mph52%30.07 "HgN/A
11:20 AM64 °FScattered clouds.3 mph52%30.07 "HgN/A
10:50 AM63 °FPassing clouds.3 mph59%30.07 "HgN/A
10:20 AM61 °FScattered clouds.3 mph63%30.07 "HgN/A
9:20 AM59 °FScattered clouds.1 mph68%30.07 "HgN/A
8:50 AM55 °FScattered clouds.2 mph67%30.07 "HgN/A
8:20 AM55 °FPartly sunny.1 mph67%30.07 "HgN/A
7:50 AM57 °FPartly sunny.1 mph63%30.07 "HgN/A
6:50 AM54 °FPassing clouds.No wind67%30.04 "HgN/A
6:20 AM46 °FPassing clouds.1 mph82%30.04 "HgN/A
5:50 AM48 °FPassing clouds.5 mph76%30.04 "HgN/A
5:20 AM52 °FPassing clouds.3 mph72%30.04 "HgN/A
4:50 AM52 °FPassing clouds.2 mph67%30.01 "HgN/A
4:20 AM54 °FPassing clouds.5 mph63%30.01 "HgN/A
3:50 AM57 °FPassing clouds.6 mph59%30.01 "HgN/A
3:20 AM55 °FPassing clouds.8 mph59%30.01 "HgN/A
2:50 AM57 °FPassing clouds.9 mph55%30.01 "HgN/A
2:20 AM61 °FPassing clouds.14 mph45%30.01 "HgN/A
1:50 AM59 °FPassing clouds.10 mph51%30.01 "HgN/A
1:20 AM59 °FPassing clouds.8 mph51%29.98 "HgN/A
12:50 AM59 °FPassing clouds.10 mph51%29.98 "HgN/A
11:50 PM
Sat, Nov 28
59 °FPassing clouds.14 mph51%29.98 "HgN/A
10:50 PM59 °FPassing clouds.13 mph51%29.98 "HgN/A
10:20 PM59 °FPassing clouds.14 mph51%29.95 "HgN/A
9:50 PM59 °FPassing clouds.18 mph51%29.92 "HgN/A
9:20 PM59 °FPassing clouds.15 mph51%29.92 "HgN/A
8:50 PM59 °FPassing clouds.8 mph51%29.92 "HgN/A
8:20 PM59 °FPassing clouds.6 mph55%29.92 "HgN/A
7:50 PM59 °FPassing clouds.9 mph55%29.92 "HgN/A
7:20 PM59 °FPassing clouds.8 mph59%29.92 "HgN/A
6:50 PM59 °FPassing clouds.8 mph59%29.89 "HgN/A
6:20 PM61 °FPassing clouds.7 mph55%29.89 "HgN/A
5:50 PM61 °FPassing clouds.12 mph55%29.86 "HgN/A
5:20 PM59 °FPassing clouds.12 mph59%29.86 "HgN/A
4:50 PM61 °FPassing clouds.7 mph59%29.83 "HgN/A
4:20 PM61 °FPassing clouds.10 mph59%29.83 "HgN/A
3:50 PM61 °FPassing clouds.12 mph59%29.83 "HgN/A
3:20 PM61 °FPassing clouds.10 mph59%29.80 "HgN/A
2:50 PM63 °FPassing clouds.9 mph56%29.80 "HgN/A
2:20 PM63 °FScattered clouds.12 mph56%29.80 "HgN/A
1:50 PM63 °FScattered clouds.15 mph56%29.80 "HgN/A
1:20 PM63 °FScattered clouds.15 mph56%29.77 "HgN/A
12:50 PM61 °FScattered clouds.15 mph59%29.80 "HgN/A
12:20 PM63 °FScattered clouds.17 mph56%29.80 "HgN/A
Weather by CustomWeather, © 2015

See weather overviewHow to use our weather pages